Time,TemperatureF,DewpointF,PressureIn,WindDirection,WindDirectionDegrees,WindSpeedMPH,WindSpeedGustMPH,Humidity,HourlyPrecipIn,Conditions,Clouds,dailyrainin,SoftwareType,DateUTC
2013-01-09 00:00:00,42.8,32.2,30.37,West,280,0.0,0.0,66,0.00,OVC,,0.00,WeatherDisplay:10.37,2013-01-09 05:00:00,
2013-01-09 00:15:00,43.3,33.1,30.40,West,280,0.0,0.0,67,0.00,OVC,,0.00,WeatherDisplay:10.37,2013-01-09 05:15:00,
2013-01-09 00:30:00,43.7,33.5,30.40,West,280,0.0,0.0,67,0.00,OVC,,0.00,WeatherDisplay:10.37,2013-01-09 05:30:00,
2013-01-09 00:45:00,43.7,33.5,30.40,West,280,0.0,0.0,67,0.00,OVC,,0.00,WeatherDisplay:10.37,2013-01-09 05:45:00,
2013-01-09 01:00:00,43.9,33.3,30.37,West,280,0.0,0.0,66,0.00,OVC,,0.00,WeatherDisplay:10.37,2013-01-09 06:00:00,
2013-01-09 01:15:00,44.1,33.4,30.40,West,280,0.0,0.0,66,0.00,OVC,,0.00,WeatherDisplay:10.37,2013-01-09 06:15:00,
2013-01-09 01:30:00,44.1,33.4,30.40,West,280,0.0,0.0,66,0.00,OVC,,0.00,WeatherDisplay:10.37,2013-01-09 06:30:00,
2013-01-09 01:45:00,44.2,34.0,30.40,West,280,0.0,0.0,67,0.00,OVC,,0.00,WeatherDisplay:10.37,2013-01-09 06:45:00,
2013-01-09 02:00:00,44.1,33.8,30.40,West,280,0.0,0.0,67,0.00,OVC,,0.00,WeatherDisplay:10.37,2013-01-09 07:00:00,
2013-01-09 02:15:00,44.1,33.8,30.40,West,280,0.0,0.0,67,0.00,OVC,,0.00,WeatherDisplay:10.37,2013-01-09 07:15:00,
2013-01-09 02:30:00,44.2,34.0,30.40,West,280,0.0,0.0,67,0.00,OVC,,0.00,WeatherDisplay:10.37,2013-01-09 07:30:00,
2013-01-09 02:45:00,44.2,34.3,30.40,West,280,0.0,0.0,68,0.00,OVC,,0.00,WeatherDisplay:10.37,2013-01-09 07:45:00,
2013-01-09 03:00:00,43.9,33.6,30.37,West,280,0.0,0.0,67,0.00,OVC,,0.00,WeatherDisplay:10.37,2013-01-09 08:00:00,
2013-01-09 03:15:00,42.4,32.3,30.37,West,280,0.0,0.0,67,0.00,OVC,,0.00,WeatherDisplay:10.37,2013-01-09 08:15:00,
2013-01-09 03:30:00,40.3,30.6,30.37,West,280,0.0,0.0,68,0.00,OVC,,0.00,WeatherDisplay:10.37,2013-01-09 08:30:00,
2013-01-09 03:45:00,38.8,30.6,30.37,WNW,285,0.0,0.0,72,0.00,BKN,,0.00,WeatherDisplay:10.37,2013-01-09 08:45:00,
2013-01-09 04:00:00,37.9,30.4,30.37,WNW,285,0.0,0.0,74,0.00,BKN,,0.00,WeatherDisplay:10.37,2013-01-09 09:00:00,
2013-01-09 04:15:00,37.6,30.0,30.37,WNW,285,0.0,0.0,74,0.00,FEW,,0.00,WeatherDisplay:10.37,2013-01-09 09:15:00,
2013-01-09 04:30:00,36.9,30.0,30.37,WNW,282,0.0,0.0,76,0.00,FEW,,0.00,WeatherDisplay:10.37,2013-01-09 09:30:00,
2013-01-09 04:45:00,36.3,29.8,30.37,West,281,0.0,0.0,77,0.00,FEW,,0.00,WeatherDisplay:10.37,2013-01-09 09:45:00,
2013-01-09 05:00:00,35.8,29.6,30.37,WNW,285,0.0,0.0,78,0.00,SCT,,0.00,WeatherDisplay:10.37,2013-01-09 10:00:00,
2013-01-09 05:15:00,35.2,29.7,30.37,WNW,285,0.0,0.0,80,0.00,FEW,,0.00,WeatherDisplay:10.37,2013-01-09 10:15:00,
2013-01-09 05:30:00,35.1,29.8,30.37,WNW,285,0.0,0.0,81,0.00,FEW,,0.00,WeatherDisplay:10.37,2013-01-09 10:30:00,
2013-01-09 05:45:00,35.6,30.3,30.37,West,280,0.0,0.0,81,0.00,FEW,,0.00,WeatherDisplay:10.37,2013-01-09 10:45:00,
2013-01-09 06:00:00,36.0,31.0,30.37,WNW,285,0.0,0.0,82,0.00,CLR,,0.00,WeatherDisplay:10.37,2013-01-09 11:00:00,
2013-01-09 06:15:00,36.3,31.4,30.37,WNW,285,0.0,0.0,82,0.00,FEW,,0.00,WeatherDisplay:10.37,2013-01-09 11:15:00,
2013-01-09 06:30:00,36.9,32.2,30.37,WNW,285,0.0,0.0,83,0.00,BKN,,0.00,WeatherDisplay:10.37,2013-01-09 11:30:00,
2013-01-09 06:45:00,36.0,30.7,30.37,WNW,284,0.0,0.0,81,0.00,BKN,,0.00,WeatherDisplay:10.37,2013-01-09 11:45:00,
2013-01-09 07:00:00,35.1,30.1,30.37,WNW,285,0.0,0.0,82,0.00,OVC,,0.00,WeatherDisplay:10.37,2013-01-09 12:00:00,
2013-01-09 07:15:00,34.3,29.4,30.37,West,280,0.0,0.0,82,0.00,FEW,,0.00,WeatherDisplay:10.37,2013-01-09 12:15:00,
2013-01-09 07:30:00,34.2,29.5,30.40,West,280,0.0,0.0,83,0.00,FEW,,0.00,WeatherDisplay:10.37,2013-01-09 12:30:00,
2013-01-09 07:45:00,34.5,30.5,30.40,WNW,285,0.0,0.0,85,0.00,CLR,,0.00,WeatherDisplay:10.37,2013-01-09 12:45:00,
2013-01-09 08:00:00,34.7,30.7,30.40,WNW,285,0.0,0.0,85,0.00,CLR,,0.00,WeatherDisplay:10.37,2013-01-09 13:00:00,
2013-01-09 08:15:00,36.9,33.1,30.40,West,281,0.0,0.0,86,0.00,CLR,,0.00,WeatherDisplay:10.37,2013-01-09 13:15:00,
2013-01-09 08:30:00,40.6,36.5,30.40,West,280,0.0,0.0,85,0.00,CLR,,0.00,WeatherDisplay:10.37,2013-01-09 13:30:00,
2013-01-09 08:45:00,44.2,38.1,30.40,WNW,283,0.0,0.0,79,0.00,SCT,,0.00,WeatherDisplay:10.37,2013-01-09 13:45:00,
2013-01-09 09:00:00,46.8,37.5,30.40,West,274,0.0,0.0,70,0.00,SCT,,0.00,WeatherDisplay:10.37,2013-01-09 14:00:00,
2013-01-09 09:15:00,49.1,35.4,30.40,SSE,167,0.0,2.0,59,0.00,OVC,,0.00,WeatherDisplay:10.37,2013-01-09 14:15:00,
2013-01-09 09:30:00,51.6,35.5,30.40,West,259,0.0,2.0,54,0.00,OVC,,0.00,WeatherDisplay:10.37,2013-01-09 14:30:00,
2013-01-09 09:45:00,52.9,35.2,30.40,SE,143,1.0,5.0,51,0.00,BKN,,0.00,WeatherDisplay:10.37,2013-01-09 14:45:00,
2013-01-09 10:00:00,54.0,35.2,30.40,SE,146,2.0,5.0,49,0.00,OVC,,0.00,WeatherDisplay:10.37,2013-01-09 15:00:00,
2013-01-09 10:15:00,53.4,34.2,30.40,SW,214,2.0,5.0,48,0.00,OVC,,0.00,WeatherDisplay:10.37,2013-01-09 15:15:00,
2013-01-09 10:30:00,53.4,34.2,30.37,South,188,3.0,5.0,48,0.00,OVC,,0.00,WeatherDisplay:10.37,2013-01-09 15:30:00,
2013-01-09 10:45:00,54.1,33.2,30.37,SW,219,3.0,5.0,45,0.00,OVC,,0.00,WeatherDisplay:10.37,2013-01-09 15:45:00,
2013-01-09 11:00:00,54.0,34.2,30.37,SSE,167,3.0,7.0,47,0.00,BKN,,0.00,WeatherDisplay:10.37,2013-01-09 16:00:00,
2013-01-09 11:15:00,55.6,34.0,30.34,SSE,162,3.0,7.0,44,0.00,BKN,,0.00,WeatherDisplay:10.37,2013-01-09 16:15:00,
2013-01-09 11:30:00,55.2,34.2,30.34,SW,223,6.0,8.0,45,0.00,BKN,,0.00,WeatherDisplay:10.37,2013-01-09 16:30:00,
2013-01-09 11:45:00,54.9,33.3,30.34,SSW,212,5.0,8.0,44,0.00,BKN,,0.00,WeatherDisplay:10.37,2013-01-09 16:45:00,
2013-01-09 12:00:00,55.4,33.8,30.31,South,183,7.0,9.0,44,0.00,FEW,,0.00,WeatherDisplay:10.37,2013-01-09 17:00:00,
2013-01-09 12:15:00,56.1,35.6,30.31,South,187,6.0,9.0,46,0.00,CLR,,0.00,WeatherDisplay:10.37,2013-01-09 17:15:00,
2013-01-09 12:30:00,56.3,36.3,30.31,South,175,7.0,9.0,47,0.00,CLR,,0.00,WeatherDisplay:10.37,2013-01-09 17:30:00,
2013-01-09 12:45:00,56.5,35.9,30.31,SSW,192,6.0,7.0,46,0.00,CLR,,0.00,WeatherDisplay:10.37,2013-01-09 17:45:00,
2013-01-09 13:00:00,55.6,36.7,30.28,South,170,2.0,6.0,49,0.00,BKN,,0.00,WeatherDisplay:10.37,2013-01-09 18:00:00,
2013-01-09 13:15:00,55.6,37.2,30.28,SSE,161,5.0,6.0,50,0.00,BKN,,0.00,WeatherDisplay:10.37,2013-01-09 18:15:00,
2013-01-09 13:30:00,58.8,39.2,30.28,SSW,202,5.0,6.0,48,0.00,BKN,,0.00,WeatherDisplay:10.37,2013-01-09 18:30:00,
2013-01-09 13:45:00,59.0,38.8,30.28,SW,223,5.0,5.0,47,0.00,BKN,,0.00,WeatherDisplay:10.37,2013-01-09 18:45:00,
2013-01-09 14:00:00,59.4,40.2,30.28,WSW,238,5.0,6.0,49,0.00,BKN,,0.00,WeatherDisplay:10.37,2013-01-09 19:00:00,
2013-01-09 14:15:00,59.0,39.9,30.28,SW,214,2.0,4.0,49,0.00,SCT,,0.00,WeatherDisplay:10.37,2013-01-09 19:15:00,
2013-01-09 14:30:00,57.7,39.2,30.28,WSW,246,1.0,3.0,50,0.00,BKN,,0.00,WeatherDisplay:10.37,2013-01-09 19:30:00,
2013-01-09 14:45:00,56.7,39.2,30.28,WSW,257,1.0,3.0,52,0.00,OVC,,0.00,WeatherDisplay:10.37,2013-01-09 19:45:00,
2013-01-09 15:00:00,56.1,39.2,30.28,WSW,253,0.0,1.0,53,0.00,OVC,,0.00,WeatherDisplay:10.37,2013-01-09 20:00:00,
2013-01-09 15:15:00,57.2,39.7,30.28,WNW,301,0.0,1.0,52,0.00,BKN,,0.00,WeatherDisplay:10.37,2013-01-09 20:15:00,
2013-01-09 15:30:00,56.8,39.9,30.25,SSE,150,0.0,0.0,53,0.00,BKN,,0.00,WeatherDisplay:10.37,2013-01-09 20:30:00,
2013-01-09 15:45:00,56.1,39.2,30.25,South,170,1.0,3.0,53,0.00,FEW,,0.00,WeatherDisplay:10.37,2013-01-09 20:45:00,
2013-01-09 16:00:00,55.0,39.2,30.25,SW,214,0.0,0.0,55,0.00,CLR,,0.00,WeatherDisplay:10.37,2013-01-09 21:00:00,
2013-01-09 16:15:00,54.0,38.6,30.22,SW,219,0.0,1.0,56,0.00,CLR,,0.00,WeatherDisplay:10.37,2013-01-09 21:15:00,
2013-01-09 16:30:00,53.2,39.3,30.22,South,189,0.0,1.0,59,0.00,CLR,,0.00,WeatherDisplay:10.37,2013-01-09 21:30:00,
2013-01-09 16:45:00,53.1,39.5,30.22,SW,236,0.0,5.0,60,0.00,CLR,,0.00,WeatherDisplay:10.37,2013-01-09 21:45:00,
2013-01-09 17:00:00,53.2,40.1,30.22,SW,215,1.0,5.0,61,0.00,CLR,,0.00,WeatherDisplay:10.37,2013-01-09 22:00:00,
2013-01-09 17:15:00,54.0,39.9,30.22,SSW,210,2.0,5.0,59,0.00,BKN,,0.00,WeatherDisplay:10.37,2013-01-09 22:15:00,
2013-01-09 17:30:00,53.1,39.5,30.22,WSW,244,1.0,5.0,60,0.00,BKN,,0.00,WeatherDisplay:10.37,2013-01-09 22:30:00,
2013-01-09 17:45:00,51.8,38.8,30.22,WSW,250,1.0,3.0,61,0.00,SCT,,0.00,WeatherDisplay:10.37,2013-01-09 22:45:00,
2013-01-09 18:00:00,50.0,38.3,30.22,SSW,211,0.0,0.0,64,0.00,SCT,,0.00,WeatherDisplay:10.37,2013-01-09 23:00:00,
2013-01-09 18:15:00,49.6,39.5,30.22,SW,219,0.0,0.0,68,0.00,CLR,,0.00,WeatherDisplay:10.37,2013-01-09 23:15:00,
2013-01-09 18:30:00,49.6,39.9,30.22,SW,232,0.0,0.0,69,0.00,CLR,,0.00,WeatherDisplay:10.37,2013-01-09 23:30:00,
2013-01-09 18:45:00,50.2,40.4,30.22,WSW,244,0.0,6.0,69,0.00,CLR,,0.00,WeatherDisplay:10.37,2013-01-09 23:45:00,
2013-01-09 19:00:00,50.2,40.4,30.22,SW,220,2.0,6.0,69,0.00,CLR,,0.00,WeatherDisplay:10.37,2013-01-10 00:00:00,
2013-01-09 19:15:00,49.5,40.1,30.22,South,190,1.0,1.0,70,0.00,CLR,,0.00,WeatherDisplay:10.37,2013-01-10 00:15:00,
2013-01-09 19:30:00,48.7,40.1,30.22,SW,220,0.0,1.0,72,0.00,CLR,,0.00,WeatherDisplay:10.37,2013-01-10 00:30:00,
2013-01-09 19:45:00,51.3,42.5,30.25,SW,230,2.0,8.0,72,0.00,FEW,,0.00,WeatherDisplay:10.37,2013-01-10 00:45:00,
2013-01-09 20:00:00,52.2,41.9,30.25,WSW,244,5.0,8.0,68,0.00,SCT,,0.00,WeatherDisplay:10.37,2013-01-10 01:00:00,
2013-01-09 20:15:00,52.2,41.1,30.25,WSW,250,3.0,6.0,66,0.00,SCT,,0.00,WeatherDisplay:10.37,2013-01-10 01:15:00,
2013-01-09 20:30:00,50.4,39.0,30.28,NW,310,5.0,10.0,65,0.00,OVC,,0.00,WeatherDisplay:10.37,2013-01-10 01:30:00,
2013-01-09 20:45:00,47.1,36.3,30.31,NW,324,10.0,14.0,66,0.00,OVC,,0.00,WeatherDisplay:10.37,2013-01-10 01:45:00,
2013-01-09 21:00:00,46.4,35.7,30.31,NW,322,8.0,10.0,66,0.00,OVC,,0.00,WeatherDisplay:10.37,2013-01-10 02:00:00,
2013-01-09 21:15:00,45.7,35.3,30.31,NW,318,6.0,9.0,67,0.00,BKN,,0.00,WeatherDisplay:10.37,2013-01-10 02:15:00,
2013-01-09 21:30:00,45.5,35.5,30.31,WNW,296,3.0,7.0,68,0.00,SCT,,0.00,WeatherDisplay:10.37,2013-01-10 02:30:00,
2013-01-09 21:45:00,44.4,34.5,30.31,West,268,1.0,5.0,68,0.00,CLR,,0.00,WeatherDisplay:10.37,2013-01-10 02:45:00,
2013-01-09 22:00:00,43.0,33.9,30.31,WSW,255,0.0,0.0,70,0.00,CLR,,0.00,WeatherDisplay:10.37,2013-01-10 03:00:00,
2013-01-09 22:15:00,41.9,33.9,30.31,West,279,0.0,0.0,73,0.00,CLR,,0.00,WeatherDisplay:10.37,2013-01-10 03:15:00,
2013-01-09 22:30:00,40.5,33.2,30.31,West,268,0.0,0.0,75,0.00,CLR,,0.00,WeatherDisplay:10.37,2013-01-10 03:30:00,
2013-01-09 22:45:00,41.5,35.2,30.31,SW,231,0.0,1.0,78,0.00,CLR,,0.00,WeatherDisplay:10.37,2013-01-10 03:45:00,
2013-01-09 23:00:00,42.8,37.1,30.31,West,275,1.0,5.0,80,0.00,CLR,,0.00,WeatherDisplay:10.37,2013-01-10 04:00:00,
2013-01-09 23:15:00,43.9,36.5,30.31,West,281,5.0,11.0,75,0.00,CLR,,0.00,WeatherDisplay:10.37,2013-01-10 04:15:00,
2013-01-09 23:30:00,44.8,34.1,30.31,WNW,291,6.0,11.0,66,0.00,CLR,,0.00,WeatherDisplay:10.37,2013-01-10 04:30:00,
2013-01-09 23:45:00,45.5,33.2,30.31,WNW,287,7.0,10.0,62,0.00,CLR,,0.00,WeatherDisplay:10.37,2013-01-10 04:45:00,